StationID,Date,MaxTemp,MinTemp,Precipitation,Snowfall,SnowDepth
"USC00506874","1954-11-01",,,,,0.00
"USC00506874","1954-11-02",,,,,0.00
"USC00506874","1954-11-03",,,,,0.00
"USC00506874","1954-11-04",,,,,0.00
"USC00506874","1954-11-05",,,,,0.00
"USC00506874","1954-11-06",,,,,0.00
"USC00506874","1954-11-07",,,,,0.00
"USC00506874","1954-11-08",,,,,0.00
"USC00506874","1954-11-09",,,,,0.00
"USC00506874","1954-11-10",,,0.00,0.00,0.00
"USC00506874","1954-11-11",26.06,10.04,0.00,0.00,0.00
"USC00506874","1954-11-12",26.96,19.94,5.00,13.00,25.00
"USC00506874","1954-11-13",26.96,19.04,33.00,64.00,76.00
"USC00506874","1954-11-14",26.96,14.00,0.00,0.00,76.00
"USC00506874","1954-11-15",24.98,10.94,0.00,0.00,76.00
"USC00506874","1954-11-16",21.92,3.92,0.00,0.00,76.00
"USC00506874","1954-11-17",28.04,10.94,76.00,51.00,102.00
"USC00506874","1954-11-18",12.02,-0.94,0.00,0.00,102.00
"USC00506874","1954-11-19",21.92,-0.94,0.00,0.00,102.00
"USC00506874","1954-11-20",37.04,12.02,0.00,0.00,102.00
"USC00506874","1954-11-21",42.98,17.96,0.00,0.00,25.00
"USC00506874","1954-11-22",48.02,24.08,0.00,0.00,0.00
"USC00506874","1954-11-23",44.06,21.92,0.00,0.00,0.00
"USC00506874","1954-11-24",42.98,19.94,0.00,0.00,0.00
"USC00506874","1954-11-25",37.94,24.98,0.00,0.00,0.00
"USC00506874","1954-11-26",30.02,19.04,3.00,5.00,0.00
"USC00506874","1954-11-27",30.92,24.98,36.00,30.00,25.00
"USC00506874","1954-11-28",42.98,14.00,36.00,0.00,25.00
"USC00506874","1954-11-29",15.98,1.94,0.00,0.00,0.00
"USC00506874","1954-11-30",12.02,3.92,0.00,0.00,0.00
"USC00506874","1954-12-01",21.02,12.92,38.00,0.00,51.00
"USC00506874","1954-12-02",24.98,17.96,28.00,76.00,102.00
"USC00506874","1954-12-03",21.02,-5.98,0.00,0.00,102.00
"USC00506874","1954-12-04",14.00,-5.98,0.00,0.00,102.00
"USC00506874","1954-12-05",1.94,-18.94,0.00,0.00,102.00
"USC00506874","1954-12-06",12.02,-14.08,13.00,13.00,127.00
"USC00506874","1954-12-07",19.94,-0.94,0.00,0.00,102.00
"USC00506874","1954-12-08",3.92,-5.98,0.00,0.00,102.00
"USC00506874","1954-12-09",23.00,-7.96,0.00,0.00,76.00
"USC00506874","1954-12-10",23.00,-0.04,0.00,0.00,76.00
"USC00506874","1954-12-11",10.94,-2.02,0.00,0.00,76.00
"USC00506874","1954-12-12",12.02,-2.92,15.00,51.00,51.00
"USC00506874","1954-12-13",17.96,-0.94,10.00,13.00,51.00
"USC00506874","1954-12-14",10.04,-11.92,0.00,0.00,51.00
"USC00506874","1954-12-15",12.02,-9.04,0.00,0.00,51.00
"USC00506874","1954-12-16",15.08,3.92,0.00,0.00,76.00
"USC00506874","1954-12-17",21.92,-4.00,18.00,38.00,102.00
"USC00506874","1954-12-18",14.00,-14.08,170.00,76.00,178.00
"USC00506874","1954-12-19",37.94,6.08,188.00,102.00,279.00
"USC00506874","1954-12-20",39.92,8.96,30.00,38.00,254.00
"USC00506874","1954-12-21",15.98,-2.02,23.00,25.00,229.00
"USC00506874","1954-12-22",12.02,-2.02,25.00,25.00,254.00
"USC00506874","1954-12-23",6.08,-18.04,5.00,13.00,254.00
"USC00506874","1954-12-24",-0.04,-29.92,0.00,0.00,229.00
"USC00506874","1954-12-25",-2.02,-23.08,0.00,0.00,229.00
"USC00506874","1954-12-26",-11.02,-29.92,0.00,0.00,229.00
"USC00506874","1954-12-27",-14.98,-36.04,0.00,0.00,229.00
"USC00506874","1954-12-28",-9.94,-41.08,0.00,0.00,229.00
"USC00506874","1954-12-29",-2.02,-38.92,0.00,0.00,229.00
"USC00506874","1954-12-30",-0.04,-23.08,0.00,0.00,229.00
"USC00506874","1954-12-31",-11.92,-22.00,0.00,0.00,229.00
"USC00506874","1955-01-01",33.08,-23.08,0.00,0.00,229.00
"USC00506874","1955-01-02",35.06,15.98,0.00,0.00,178.00
"USC00506874","1955-01-03",26.96,10.04,20.00,13.00,152.00
"USC00506874","1955-01-04",19.94,1.04,76.00,25.00,178.00
"USC00506874","1955-01-05",10.04,-7.96,0.00,0.00,178.00
"USC00506874","1955-01-06",19.94,3.02,107.00,76.00,229.00
"USC00506874","1955-01-07",17.96,-4.00,0.00,0.00,229.00
"USC00506874","1955-01-08",41.00,6.08,0.00,0.00,152.00
"USC00506874","1955-01-09",44.06,24.98,0.00,0.00,127.00
"USC00506874","1955-01-10",41.00,28.04,0.00,0.00,102.00
"USC00506874","1955-01-11",39.92,24.98,0.00,0.00,102.00
"USC00506874","1955-01-12",30.92,17.96,0.00,0.00,102.00
"USC00506874","1955-01-13",37.94,6.98,0.00,0.00,102.00
"USC00506874","1955-01-14",39.92,6.98,0.00,0.00,102.00
"USC00506874","1955-01-15",33.98,1.04,0.00,0.00,102.00
"USC00506874","1955-01-16",24.08,-2.02,0.00,0.00,102.00
"USC00506874","1955-01-17",5.00,-5.98,0.00,0.00,102.00
"USC00506874","1955-01-18",24.98,-9.94,0.00,0.00,102.00
"USC00506874","1955-01-20",35.96,19.94,,,51.00
"USC00506874","1955-01-21",41.00,3.02,20.00,25.00,76.00
"USC00506874","1955-01-22",41.00,19.94,8.00,0.00,
"USC00506874","1955-01-23",39.92,26.06,0.00,0.00,
"USC00506874","1955-01-24",41.00,33.98,0.00,0.00,
"USC00506874","1955-01-25",41.00,19.94,0.00,0.00,
"USC00506874","1955-01-26",39.02,15.08,0.00,0.00,
"USC00506874","1955-01-27",37.04,12.92,0.00,0.00,
"USC00506874","1955-01-28",19.94,-7.96,0.00,0.00,
"USC00506874","1955-01-29",,,0.00,0.00,
"USC00506874","1955-01-30",,,0.00,0.00,
"USC00506874","1955-01-31",,,0.00,0.00,
"USC00506874","1955-02-01",,,18.00,25.00,25.00
"USC00506874","1955-02-02",39.02,17.06,0.00,0.00,25.00
"USC00506874","1955-02-03",39.92,24.08,0.00,0.00,25.00
"USC00506874","1955-02-04",32.00,15.98,0.00,0.00,0.00
"USC00506874","1955-02-06",-2.02,-25.96,,,
"USC00506874","1955-02-07",8.96,-22.00,,,76.00
"USC00506874","1955-02-08",-2.02,-25.06,0.00,0.00,76.00
"USC00506874","1955-02-09",8.96,-20.02,18.00,25.00,102.00
"USC00506874","1955-02-10",17.06,5.00,0.00,0.00,102.00
"USC00506874","1955-02-11",28.04,12.92,0.00,0.00,127.00
"USC00506874","1955-02-12",28.04,12.92,56.00,25.00,152.00
"USC00506874","1955-02-13",15.98,-2.92,58.00,25.00,178.00
"USC00506874","1955-02-14",12.92,-9.04,0.00,0.00,178.00
"USC00506874","1955-02-15",19.04,8.06,79.00,51.00,229.00
"USC00506874","1955-02-16",17.96,-9.94,0.00,0.00,229.00
"USC00506874","1955-02-17",37.94,-2.02,0.00,0.00,229.00
"USC00506874","1955-02-18",33.08,19.04,0.00,0.00,203.00
"USC00506874","1955-02-19",39.02,28.04,0.00,0.00,203.00
"USC00506874","1955-02-20",33.98,19.04,64.00,51.00,254.00
"USC00506874","1955-02-21",32.00,15.98,0.00,0.00,254.00
"USC00506874","1955-02-22",35.06,19.04,0.00,0.00,229.00
"USC00506874","1955-02-23",26.96,-2.02,0.00,0.00,229.00
"USC00506874","1955-02-24",30.02,-7.06,0.00,0.00,229.00
"USC00506874","1955-02-25",28.04,-5.08,0.00,0.00,229.00
"USC00506874","1955-02-26",28.94,6.08,46.00,51.00,279.00
"USC00506874","1955-02-27",28.04,-2.92,0.00,0.00,279.00
"USC00506874","1955-02-28",24.98,5.00,0.00,0.00,279.00
"USC00506874","1955-04-01",39.92,23.00,0.00,0.00,25.00
"USC00506874","1955-04-02",35.96,26.06,30.00,25.00,51.00
"USC00506874","1955-04-03",,,0.00,0.00,51.00
"USC00506874","1955-04-04",39.92,10.04,0.00,0.00,51.00
"USC00506874","1955-04-05",,,0.00,0.00,51.00
"USC00506874","1955-04-06",41.00,19.94,0.00,0.00,51.00
"USC00506874","1955-04-07",41.00,24.08,0.00,0.00,51.00
"USC00506874","1955-04-08",39.02,26.96,0.00,0.00,51.00
"USC00506874","1955-04-09",44.06,12.02,0.00,0.00,51.00
"USC00506874","1955-04-10",39.02,12.02,0.00,0.00,25.00
"USC00506874","1955-04-11",41.00,15.08,0.00,0.00,25.00
"USC00506874","1955-04-12",42.08,17.96,0.00,0.00,25.00
"USC00506874","1955-04-13",,,0.00,0.00,25.00
"USC00506874","1955-04-14",42.98,33.08,0.00,0.00,25.00
"USC00506874","1955-04-15",,,0.00,0.00,25.00
"USC00506874","1955-04-16",50.00,26.96,0.00,0.00,25.00
"USC00506874","1955-04-17",46.04,24.08,0.00,0.00,25.00
"USC00506874","1955-04-18",42.98,30.02,0.00,0.00,25.00
"USC00506874","1955-04-19",44.06,21.02,0.00,0.00,25.00
"USC00506874","1955-04-20",41.00,30.92,13.00,13.00,51.00
"USC00506874","1955-04-21",35.06,28.94,0.00,0.00,51.00
"USC00506874","1955-04-22",,,0.00,0.00,
"USC00506874","1955-04-23",,,0.00,0.00,
"USC00506874","1955-04-24",39.92,21.02,0.00,0.00,0.00
"USC00506874","1955-04-25",,,0.00,0.00,0.00
"USC00506874","1955-04-26",,,0.00,0.00,0.00
"USC00506874","1955-04-27",46.94,21.02,0.00,0.00,0.00
"USC00506874","1955-04-28",42.98,19.94,0.00,0.00,0.00
"USC00506874","1955-04-29",55.94,33.98,0.00,0.00,0.00
"USC00506874","1955-04-30",44.96,23.00,0.00,0.00,0.00
"USC00506874","1955-05-01",51.98,26.96,0.00,0.00,0.00
"USC00506874","1955-05-02",,,0.00,0.00,0.00
"USC00506874","1955-05-03",,,0.00,0.00,0.00
"USC00506874","1955-05-04",53.96,26.06,0.00,0.00,0.00
"USC00506874","1955-05-05",55.04,30.92,0.00,0.00,0.00
"USC00506874","1955-05-06",,,0.00,0.00,0.00
"USC00506874","1955-05-07",55.94,28.04,0.00,0.00,0.00
"USC00506874","1955-05-08",57.92,32.00,0.00,0.00,0.00
"USC00506874","1955-05-09",57.92,26.06,0.00,0.00,0.00
"USC00506874","1955-05-10",53.96,30.02,0.00,0.00,0.00
"USC00506874","1955-05-11",,,,0.00,0.00
"USC00506874","1955-05-12",,,0.00,0.00,0.00
"USC00506874","1955-05-13",50.00,41.00,0.00,0.00,0.00
"USC00506874","1955-05-14",,,0.00,0.00,0.00
"USC00506874","1955-05-15",,,0.00,0.00,0.00
"USC00506874","1955-05-16",57.02,37.94,0.00,0.00,0.00
"USC00506874","1955-05-17",55.94,37.94,0.00,0.00,0.00
"USC00506874","1955-05-18",55.94,37.94,0.00,0.00,0.00
"USC00506874","1955-05-19",,,0.00,0.00,0.00
"USC00506874","1955-05-20",57.92,35.96,0.00,0.00,0.00
"USC00506874","1955-05-21",57.02,35.06,0.00,0.00,0.00
"USC00506874","1955-05-22",53.96,35.96,0.00,0.00,0.00
"USC00506874","1955-05-23",,,0.00,0.00,0.00
"USC00506874","1955-05-24",,,0.00,0.00,0.00
"USC00506874","1955-05-25",60.08,37.94,0.00,0.00,0.00
"USC00506874","1955-05-26",57.02,35.96,0.00,0.00,0.00
"USC00506874","1955-05-27",,,,0.00,0.00
"USC00506874","1955-05-28",,,,0.00,0.00
"USC00506874","1955-05-29",,,0.00,0.00,0.00
"USC00506874","1955-05-30",55.94,37.94,0.00,0.00,0.00
"USC00506874","1955-05-31",,,0.00,0.00,0.00
"USC00506874","1955-07-01",73.94,66.92,0.00,0.00,0.00
"USC00506874","1955-07-02",75.02,39.92,0.00,0.00,0.00
"USC00506874","1955-07-03",66.92,50.00,46.00,0.00,0.00
"USC00506874","1955-07-04",64.04,48.92,20.00,0.00,0.00
"USC00506874","1955-07-05",69.08,55.04,0.00,0.00,0.00
"USC00506874","1955-07-06",68.00,48.02,0.00,0.00,0.00
"USC00506874","1955-07-07",66.02,42.98,0.00,0.00,0.00
"USC00506874","1955-07-08",59.00,46.94,0.00,0.00,0.00
"USC00506874","1955-07-09",,,0.00,0.00,0.00
"USC00506874","1955-07-10",64.94,44.06,0.00,0.00,0.00
"USC00506874","1955-07-11",66.02,39.92,0.00,0.00,0.00
"USC00506874","1955-07-12",,,0.00,0.00,0.00
"USC00506874","1955-07-13",,,0.00,0.00,0.00
"USC00506874","1955-07-14",,,,0.00,0.00
"USC00506874","1955-07-15",,,,0.00,0.00
"USC00506874","1955-07-16",,,,0.00,0.00
"USC00506874","1955-07-17",73.04,39.02,0.00,0.00,0.00
"USC00506874","1955-07-18",73.04,41.00,0.00,0.00,0.00
"USC00506874","1955-07-19",75.92,46.04,0.00,0.00,0.00
"USC00506874","1955-07-20",71.96,42.08,0.00,0.00,0.00
"USC00506874","1955-07-21",62.96,48.92,0.00,0.00,0.00
"USC00506874","1955-07-22",82.94,42.08,0.00,0.00,0.00
"USC00506874","1955-07-23",75.02,44.96,0.00,0.00,0.00
"USC00506874","1955-07-24",69.98,42.98,0.00,0.00,0.00
"USC00506874","1955-07-25",64.94,44.06,0.00,0.00,0.00
"USC00506874","1955-07-26",71.96,42.08,,0.00,0.00
"USC00506874","1955-07-27",69.08,44.06,,0.00,0.00
"USC00506874","1955-07-28",80.06,42.98,,0.00,0.00
"USC00506874","1955-07-29",82.04,42.08,0.00,0.00,0.00
"USC00506874","1955-07-30",80.06,41.00,0.00,0.00,0.00
"USC00506874","1955-07-31",84.02,39.92,0.00,0.00,0.00
